TimeEDT,TemperatureF,Dew PointF,Humidity,Sea Level PressureIn,VisibilityMPH,Wind Direction,Wind SpeedMPH,Gust SpeedMPH,PrecipitationIn,Events,Conditions,WindDirDegrees,DateUTC
12:54 AM,63.0,61.0,93,29.90,10.0,West,4.6,-,N/A,,Mostly Cloudy,260,2012-10-03 04:54:00
1:54 AM,61.0,60.1,97,29.92,5.0,SW,4.6,-,N/A,,Overcast,220,2012-10-03 05:54:00
2:54 AM,61.0,60.1,97,29.95,9.0,SW,5.8,-,N/A,,Overcast,220,2012-10-03 06:54:00
3:21 AM,60.8,59.0,94,29.97,10.0,SSW,4.6,-,N/A,,Overcast,200,2012-10-03 07:21:00
3:54 AM,61.0,59.0,93,29.95,8.0,SSE,4.6,-,N/A,,Overcast,150,2012-10-03 07:54:00
5:29 AM,60.8,57.2,88,29.99,10.0,South,8.1,-,N/A,,Mostly Cloudy,180,2012-10-03 09:29:00
5:40 AM,60.8,57.2,88,29.98,10.0,South,9.2,-,N/A,,Scattered Clouds,190,2012-10-03 09:40:00
5:54 AM,59.0,57.0,93,29.99,10.0,SSW,8.1,-,N/A,,Partly Cloudy,200,2012-10-03 09:54:00
6:54 AM,57.0,55.0,93,30.01,10.0,SSW,9.2,-,N/A,,Partly Cloudy,210,2012-10-03 10:54:00
7:07 AM,57.2,55.4,94,30.02,10.0,SSW,10.4,-,N/A,,Mostly Cloudy,210,2012-10-03 11:07:00
7:54 AM,57.0,53.1,87,30.04,10.0,SW,13.8,18.4,N/A,,Overcast,220,2012-10-03 11:54:00
8:54 AM,57.0,53.1,87,30.06,10.0,SSW,8.1,-,N/A,,Overcast,210,2012-10-03 12:54:00
9:54 AM,57.9,53.1,84,30.08,10.0,SSW,11.5,-,N/A,,Overcast,200,2012-10-03 13:54:00
11:35 AM,62.6,55.4,77,30.09,10.0,SW,13.8,-,N/A,,Scattered Clouds,230,2012-10-03 15:35:00
11:54 AM,64.0,55.0,73,30.08,10.0,SW,15.0,-,N/A,,Partly Cloudy,230,2012-10-03 15:54:00
12:29 PM,64.4,53.6,68,30.09,10.0,WSW,11.5,-,N/A,,Mostly Cloudy,250,2012-10-03 16:29:00
12:36 PM,64.4,53.6,68,30.09,10.0,SW,12.7,-,N/A,,Mostly Cloudy,230,2012-10-03 16:36:00
12:54 PM,64.9,52.0,63,30.09,10.0,WSW,15.0,27.6,N/A,,Mostly Cloudy,240,2012-10-03 16:54:00
1:54 PM,66.9,54.0,63,30.08,10.0,SW,15.0,-,N/A,,Mostly Cloudy,230,2012-10-03 17:54:00
2:54 PM,66.0,53.1,63,30.08,10.0,SW,13.8,-,N/A,,Scattered Clouds,220,2012-10-03 18:54:00
3:54 PM,66.9,53.1,61,30.07,10.0,SSW,11.5,-,N/A,,Mostly Cloudy,210,2012-10-03 19:54:00
4:54 PM,69.1,54.0,58,30.08,10.0,SW,10.4,-,N/A,,Partly Cloudy,220,2012-10-03 20:54:00
5:54 PM,68.0,52.0,56,30.09,10.0,SW,12.7,-,N/A,,Scattered Clouds,220,2012-10-03 21:54:00
6:54 PM,64.9,52.0,63,30.11,10.0,South,4.6,-,N/A,,Clear,180,2012-10-03 22:54:00
7:54 PM,62.1,52.0,70,30.11,10.0,Calm,Calm,-,N/A,,Clear,0,2012-10-03 23:54:00
8:54 PM,61.0,53.1,75,30.13,10.0,South,4.6,-,N/A,,Clear,170,2012-10-04 00:54:00
9:54 PM,57.9,53.1,84,30.14,10.0,South,3.5,-,N/A,,Clear,170,2012-10-04 01:54:00
10:54 PM,55.9,52.0,87,30.15,10.0,SSE,4.6,-,N/A,,Clear,160,2012-10-04 02:54:00
11:54 PM,57.0,52.0,83,30.16,10.0,South,4.6,-,N/A,,Clear,190,2012-10-04 03:54:00